Location: Arcusa
(42.3167°N, 0.0833°W)
Time: 09:46:31
(UTC+00:00)

Nadezhda 3 Rocket - Pass Details

Date: 25 January 2020
Orbit: 958 x 999 km, 82.9° (Epoch: 27 February)

Event Time Altitude Azimuth Distance (km) Brightness Sun altitude
Rises 06:29:20 0° 191° (S) 3,623 7.1 -9.7°
Reaches altitude 10° 06:31:49 10° 193° (SSW) 2,682 6.4 -9.3°
Maximum altitude 06:37:56 75° 278° (W) 998 3.9 -8.2°
Drops below altitude 10° 06:44:09 10° 4° (N) 2,715 6.2 -7.1°
Sets 06:46:41 0° 7° (N) 3,671 6.9 -6.7°
